Wind_Speed
21 21 20 19 19 18 19 20 20 19 18 17 16 14 13 13 12 11 10 9 8 7 7 6 6 6 6 7 7 7 7 7 6 6 7 8 8 7 8 8 8 8 8 9 9 9 9 9 8
20 20 19 19 19 19 19 20 20 19 18 17 16 15 14 13 13 12 11 10 8 7 7 7 6 6 6 7 7 7 7 7 7 7 7 7 8 8 8 8 8 8 9 9 8 9 9 8 8
20 19 19 19 19 20 20 20 20 20 19 18 17 15 14 14 13 13 12 11 9 8 7 7 7 6 6 7 7 7 7 7 7 6 7 7 8 8 8 8 8 8 9 9 9 9 9 8 8
19 19 19 19 20 20 21 20 20 20 18 18 17 15 14 14 13 13 12 10 9 8 8 7 7 7 7 8 9 8 8 8 8 7 7 7 8 8 8 8 8 8 8 8 9 10 9 8 8
18 18 19 18 19 20 21 20 20 20 19 17 17 16 15 14 13 12 11 10 10 9 9 8 8 9 9 9 9 9 8 8 8 7 7 7 7 7 7 7 7 7 8 7 8 8 8 8 8
17 18 18 19 20 20 20 20 20 20 19 18 16 15 15 14 13 12 11 12 12 11 10 9 10 10 9 9 9 9 9 8 8 7 7 7 7 7 8 7 7 7 6 6 7 8 8 8 7
16 17 18 19 20 21 21 20 20 20 19 18 17 16 15 15 14 13 12 12 12 12 12 11 11 10 10 10 10 9 9 9 8 8 8 8 7 8 8 8 7 7 6 6 6 7 8 7 7
16 15 17 19 20 21 21 21 20 20 19 18 18 17 16 16 15 14 13 13 13 13 13 13 12 11 10 11 10 9 9 8 8 8 8 8 8 8 8 8 8 6 6 6 6 7 7 7 6
15 14 15 18 19 21 21 21 20 20 19 18 18 17 16 16 16 14 14 13 13 14 13 13 12 11 10 10 10 9 9 8 8 8 8 8 8 8 8 9 8 7 6 6 5 6 6 5 5
13 13 14 17 18 20 20 20 20 20 19 18 17 17 16 16 16 15 15 14 14 14 14 13 13 12 11 10 9 9 8 9 8 8 8 8 8 8 8 8 7 7 6 6 6 5 5 4 4
10 11 13 15 17 18 19 20 20 20 19 19 18 16 16 16 16 16 15 14 14 14 14 13 13 12 11 10 9 8 9 9 8 8 8 8 8 8 8 7 7 6 6 6 6 5 4 4 4
7 9 11 13 15 16 18 19 19 20 20 19 18 17 16 16 16 16 15 15 15 14 14 13 12 12 11 11 10 9 8 8 8 8 8 8 8 7 7 7 6 6 6 6 5 5 4 4 4
4 7 9 11 14 15 16 17 18 19 19 19 18 17 16 16 15 15 15 15 14 14 14 13 12 11 10 10 10 9 8 8 8 8 7 7 7 6 6 6 5 5 5 4 4 4 4 3 3
2 5 8 10 12 13 15 16 16 18 19 19 18 17 16 16 15 15 15 15 14 14 13 13 12 11 10 10 9 9 9 9 8 8 7 8 7 6 6 5 4 3 3 3 3 3 3 3 2
1 3 6 8 10 12 13 14 15 17 18 18 17 17 16 15 14 14 14 14 14 13 12 12 12 12 11 10 10 9 9 9 8 7 7 8 7 6 6 5 4 3 2 2 2 3 3 2 1
2 2 4 6 9 10 11 13 13 15 17 17 17 16 16 15 14 14 13 13 13 13 12 12 12 12 12 11 11 10 9 9 9 8 7 7 7 6 4 4 2 1 1 1 1 1 1 1 1
4 2 1 4 6 9 10 11 11 13 15 16 16 15 15 15 13 13 13 13 13 13 12 12 11 11 12 12 11 10 10 10 9 9 8 7 6 5 5 4 2 2 2 2 2 2 2 2 2
7 5 2 1 3 5 7 9 9 11 13 14 14 13 13 13 13 13 13 12 12 13 12 11 11 10 11 11 10 10 10 10 9 8 7 7 6 5 4 3 3 2 2 2 1 1 2 2 2
10 8 6 3 1 1 4 6 7 8 11 12 12 12 12 12 12 12 12 12 12 12 12 11 10 10 10 10 9 9 9 9 8 7 6 6 6 5 5 4 3 3 3 2 2 2 3 3 3
13 11 9 7 5 2 1 2 4 6 8 9 10 11 10 10 10 10 10 11 12 12 11 11 11 11 10 9 9 9 8 8 8 8 6 6 5 5 5 5 4 4 4 4 3 4 4 5 5
15 14 11 9 7 4 2 1 2 3 5 6 8 9 10 10 9 10 9 10 10 11 11 10 10 11 10 9 9 8 8 7 7 7 7 6 6 5 5 5 5 5 5 5 5 5 5 5 5
17 15 14 12 11 8 5 4 2 3 3 5 6 7 8 8 8 9 8 8 8 9 9 10 10 10 10 9 9 8 7 7 7 7 7 6 7 6 5 5 6 6 6 6 6 6 6 6 7
19 18 16 15 14 12 9 7 4 3 3 4 5 6 7 7 6 7 8 7 7 8 9 9 9 9 10 9 9 8 7 6 6 7 6 6 6 6 6 6 6 6 6 6 6 6 7 7 8
22 21 19 18 18 16 12 10 7 5 5 5 5 5 6 6 6 6 7 7 7 8 8 8 8 8 9 9 9 8 8 7 7 7 7 6 6 6 6 6 5 6 6 6 7 7 7 8 9
25 24 23 22 21 18 15 13 9 7 7 7 7 6 6 5 5 4 5 5 6 6 7 7 7 8 8 8 8 8 8 8 7 7 7 6 5 5 6 6 6 7 7 7 7 8 8 9 9
28 26 25 24 22 20 18 16 12 10 9 9 8 7 6 6 5 4 4 4 5 5 6 6 6 7 7 7 7 7 7 7 7 7 6 5 5 6 6 6 7 7 8 8 8 9 9 10 11
30 28 27 26 25 24 22 19 16 13 12 12 10 8 7 6 5 4 3 3 4 4 5 6 6 6 7 7 7 7 7 7 7 7 6 6 6 7 7 7 8 8 9 9 9 10 11 12 12
31 30 30 29 28 26 25 22 19 16 14 13 11 8 8 7 6 5 4 4 4 4 5 5 6 6 7 7 7 7 7 7 7 7 7 7 7 8 8 8 9 9 10 10 11 12 13 13 14
33 33 32 31 30 28 27 24 20 17 16 15 13 10 9 8 8 7 6 6 6 6 6 6 6 6 7 7 7 8 8 8 7 7 7 8 8 9 9 10 10 10 11 12 12 13 14 14 14
35 34 33 33 31 30 29 25 22 20 18 18 16 13 11 11 10 9 8 7 7 7 6 7 7 7 7 7 8 8 9 9 9 8 8 9 9 10 10 11 11 12 12 13 13 14 14 15 16
Wind_Direction
57 55 55 54 54 53 52 51 52 51 48 45 44 44 45 46 46 45 51 52 52 57 63 72 80 81 82 91 96 98 101 106 106 110 114 115 118 125 132 134 137 137 138 139 139 138 137 141 147
55 52 53 54 53 52 52 50 50 48 46 44 42 41 45 47 49 52 56 59 59 60 61 71 78 86 89 91 95 99 102 102 103 109 116 119 119 122 128 133 135 139 138 140 143 142 139 143 146
52 50 51 53 53 54 52 50 49 47 45 43 43 45 49 52 52 53 57 57 56 62 63 73 78 84 90 88 89 95 96 98 102 111 115 118 126 128 131 132 134 140 139 141 146 145 142 144 145
53 51 50 52 54 54 52 50 50 49 45 43 46 48 48 51 54 55 58 57 59 61 66 75 86 85 89 88 86 92 95 96 100 109 114 115 128 132 133 133 133 135 138 142 147 149 147 144 151
56 53 50 50 53 54 53 50 49 47 44 43 46 47 50 52 53 54 58 57 61 66 71 78 87 90 90 89 90 90 89 90 94 101 110 114 126 132 141 139 133 136 138 145 149 154 153 148 151
58 53 50 51 53 52 50 49 48 46 43 43 46 48 51 52 53 56 61 63 66 67 72 80 86 90 91 92 89 87 86 86 90 96 104 111 118 126 134 144 139 137 142 144 151 156 158 152 152
59 55 54 52 51 50 49 49 49 46 43 43 47 47 50 52 54 58 62 64 65 65 71 76 79 85 89 92 90 89 85 87 92 95 101 105 115 122 124 132 140 140 144 147 145 153 155 153 155
59 56 57 54 52 51 49 48 47 47 44 45 48 50 53 52 55 59 61 63 63 65 70 72 72 81 86 88 90 93 92 93 94 97 103 105 109 124 125 127 137 141 142 143 147 150 152 159 159
59 58 58 55 53 50 48 47 47 47 46 47 50 52 52 53 55 59 62 64 64 64 67 71 70 71 76 82 86 94 98 99 98 96 103 105 108 119 128 128 131 138 140 143 147 148 150 154 159
61 56 56 57 54 49 46 46 46 46 46 46 49 51 50 51 53 59 62 65 64 64 65 70 70 70 73 78 83 91 96 100 97 92 96 103 108 115 123 129 134 139 139 141 145 149 147 152 158
63 56 53 56 53 49 46 45 45 45 46 45 47 51 51 49 53 58 61 65 66 65 67 69 69 68 71 77 83 87 91 96 95 92 98 101 108 114 112 121 130 137 138 135 139 148 155 160 163
65 55 54 57 54 49 46 45 45 45 45 44 43 48 50 50 57 57 60 64 67 66 67 70 70 70 74 79 82 86 91 91 89 94 105 105 105 112 118 124 128 128 133 138 137 144 148 154 176
71 58 59 63 60 54 49 46 46 45 45 45 42 48 50 54 61 59 59 61 64 65 66 66 68 69 75 79 75 77 86 89 87 92 98 96 100 106 118 123 127 134 136 139 141 140 135 138 159
83 64 64 65 63 57 51 46 43 43 43 44 43 47 51 54 60 61 61 62 63 65 66 66 66 69 71 73 75 78 82 86 86 87 92 95 97 100 114 115 119 130 130 124 136 146 141 141 158
136 75 67 68 64 60 53 45 42 39 41 42 42 43 46 51 58 60 60 62 63 64 66 66 66 68 70 72 74 74 76 80 85 87 88 89 94 102 106 99 88 86 90 96 123 150 158 150 124
216 108 69 66 62 61 53 48 43 38 38 39 40 40 41 45 55 58 58 60 62 62 65 67 68 68 67 69 70 68 67 72 77 82 87 81 81 83 90 91 84 63 81 122 124 122 80 17 357
225 211 67 64 60 58 55 51 45 40 37 37 38 39 41 41 46 52 55 58 62 63 65 66 66 68 66 65 66 68 69 72 74 75 76 75 75 71 61 57 47 33 42 75 71 64 25 1 338
234 233 234 69 52 50 57 54 48 41 35 34 35 37 40 41 41 46 50 54 59 62 64 65 64 65 62 62 65 68 68 68 70 71 67 65 62 59 49 45 44 37 51 61 66 25 18 11 356
233 238 240 237 242 38 52 50 48 40 33 31 31 32 35 39 41 44 48 51 54 57 62 63 61 59 57 59 63 65 66 64 63 61 60 64 62 55 48 47 47 46 34 31 30 25 18 9 351
228 233 242 243 235 245 359 28 37 33 28 29 27 29 31 35 40 42 47 50 52 54 57 58 55 53 52 54 59 63 63 62 61 60 58 56 55 52 54 48 39 30 18 13 19 6 359 351 343
226 230 236 239 242 249 270 308 355 12 18 20 21 23 24 27 33 36 44 50 51 50 52 54 53 51 50 53 55 60 59 60 58 53 51 49 47 46 47 41 31 25 19 10 6 358 348 343 341
225 228 233 240 245 250 263 266 279 330 353 359 5 14 17 24 30 33 44 48 49 47 46 44 46 47 47 47 45 51 54 55 52 46 47 47 45 40 39 34 29 26 18 8 360 354 343 337 333
227 230 233 240 244 249 256 262 268 283 315 329 348 1 3 9 21 31 41 46 45 46 43 42 41 39 40 37 33 35 40 44 44 39 38 34 32 32 29 24 18 14 4 359 353 346 341 336 328
228 231 234 239 245 248 254 258 261 277 291 295 316 336 347 347 4 26 35 37 39 42 41 40 37 36 35 31 29 30 34 35 35 32 29 27 24 18 14 14 9 4 357 351 348 345 341 336 329
229 230 233 238 243 247 251 255 256 266 278 281 290 305 322 331 344 9 22 26 29 33 34 31 32 31 27 22 25 29 29 25 22 19 16 15 7 359 354 352 350 348 343 340 336 334 331 331 331
231 233 236 241 245 248 251 254 255 261 271 278 281 282 294 312 319 337 358 9 15 18 23 22 23 22 19 16 15 18 15 11 9 6 2 356 353 347 337 333 332 333 331 330 327 326 324 323 323
230 232 237 243 246 247 252 254 255 257 265 274 280 275 284 290 297 309 319 334 357 4 1 3 5 9 8 5 7 6 4 360 356 354 354 350 341 333 328 325 325 326 325 322 320 319 320 319 318
231 233 236 240 244 247 250 252 254 257 263 267 270 262 270 278 280 289 300 302 317 332 334 342 345 352 353 352 351 350 348 345 344 342 342 340 338 331 324 321 319 319 320 318 317 316 316 314 313
231 233 236 240 243 246 251 253 254 257 259 259 262 260 264 271 273 277 283 285 292 310 316 317 327 337 342 340 340 341 342 342 337 330 329 330 328 326 326 324 323 322 321 319 317 316 314 314 314
233 235 237 240 244 247 251 254 255 257 258 259 259 258 260 266 271 272 274 276 281 293 302 305 311 322 328 330 329 331 334 335 338 331 324 323 323 323 323 323 323 322 320 319 319 318 318 317 318
Height
5882 5881 5880 5879 5878 5876 5873 5872 5870 5868 5868 5866 5865 5863 5862 5862 5861 5862 5859 5857 5857 5857 5856 5856 5855 5855 5854 5854 5855 5855 5856 5856 5857 5858 5859 5859 5860 5861 5863 5864 5865 5866 5867 5868 5870 5871 5872 5874 5875
5884 5883 5883 5881 5879 5877 5876 5873 5872 5870 5869 5867 5866 5865 5863 5862 5861 5861 5859 5858 5858 5857 5857 5856 5856 5856 5855 5855 5855 5856 5857 5857 5858 5859 5859 5860 5861 5862 5863 5865 5866 5867 5868 5869 5871 5872 5873 5875 5876
5887 5886 5885 5883 5881 5879 5878 5875 5873 5872 5871 5869 5868 5867 5865 5864 5863 5862 5861 5860 5859 5858 5857 5857 5857 5857 5857 5857 5857 5857 5858 5858 5859 5859 5860 5861 5862 5863 5864 5865 5867 5868 5869 5870 5871 5873 5874 5875 5876
5889 5889 5888 5886 5883 5881 5879 5878 5876 5874 5873 5872 5870 5869 5867 5866 5864 5863 5862 5862 5861 5859 5858 5858 5858 5858 5858 5858 5858 5858 5859 5859 5860 5860 5860 5861 5863 5864 5865 5866 5867 5868 5869 5871 5872 5873 5874 5876 5877
5892 5891 5890 5888 5885 5884 5882 5880 5878 5876 5875 5874 5872 5871 5869 5868 5866 5865 5864 5863 5862 5861 5860 5859 5859 5859 5859 5859 5860 5860 5860 5861 5861 5861 5862 5862 5863 5864 5865 5866 5868 5869 5870 5872 5873 5874 5875 5877 5877
5894 5893 5892 5890 5888 5886 5884 5882 5880 5879 5877 5876 5874 5873 5871 5870 5868 5867 5865 5865 5863 5862 5862 5861 5861 5860 5861 5861 5861 5861 5862 5862 5862 5863 5863 5863 5864 5864 5865 5867 5868 5870 5871 5872 5873 5875 5876 5877 5878
5897 5896 5894 5892 5890 5889 5887 5885 5883 5881 5880 5878 5876 5875 5873 5871 5870 5869 5867 5866 5866 5864 5863 5863 5862 5862 5862 5862 5863 5863 5863 5864 5864 5864 5864 5865 5865 5865 5866 5867 5869 5871 5872 5873 5874 5876 5877 5878 5879
5898 5899 5896 5894 5893 5891 5890 5887 5886 5884 5882 5881 5879 5877 5875 5874 5872 5871 5869 5868 5868 5866 5865 5865 5864 5864 5864 5864 5865 5865 5865 5865 5866 5866 5866 5866 5866 5866 5867 5868 5870 5872 5873 5874 5875 5876 5877 5878 5879
5901 5901 5898 5897 5895 5894 5892 5890 5889 5887 5885 5883 5881 5880 5878 5876 5874 5873 5872 5871 5870 5869 5868 5867 5867 5866 5866 5866 5867 5867 5867 5867 5867 5867 5867 5868 5868 5868 5869 5870 5871 5872 5874 5875 5876 5877 5878 5879 5879
5902 5902 5901 5900 5898 5896 5895 5893 5891 5889 5888 5886 5884 5882 5880 5878 5876 5875 5874 5873 5872 5871 5870 5869 5869 5869 5868 5868 5868 5868 5868 5869 5869 5869 5869 5870 5870 5870 5871 5871 5873 5874 5875 5875 5876 5877 5878 5879 5880
5904 5904 5903 5901 5900 5899 5897 5896 5894 5892 5891 5888 5886 5885 5883 5881 5879 5878 5877 5875 5874 5873 5872 5872 5872 5871 5871 5870 5870 5870 5870 5870 5871 5871 5871 5871 5872 5872 5873 5873 5874 5875 5875 5876 5877 5878 5878 5879 5880
5906 5905 5904 5903 5902 5901 5900 5899 5897 5895 5894 5892 5889 5887 5885 5883 5882 5881 5879 5878 5877 5876 5875 5875 5874 5873 5873 5872 5872 5872 5872 5872 5872 5872 5872 5873 5873 5874 5875 5875 5876 5876 5876 5877 5878 5878 5879 5879 5879
5907 5907 5906 5905 5904 5903 5902 5901 5900 5898 5896 5894 5892 5890 5888 5886 5885 5884 5882 5881 5879 5878 5878 5877 5876 5876 5875 5875 5874 5874 5874 5874 5874 5874 5874 5875 5875 5876 5876 5876 5877 5877 5878 5878 5878 5879 5879 5880 5880
5908 5908 5907 5906 5906 5905 5904 5903 5903 5901 5899 5897 5895 5893 5891 5889 5888 5886 5885 5883 5882 5881 5880 5879 5879 5878 5878 5877 5876 5876 5876 5876 5876 5876 5876 5876 5876 5877 5877 5878 5878 5878 5879 5879 5879 5879 5880 5880 5880
5908 5909 5909 5908 5907 5906 5906 5906 5905 5903 5901 5899 5898 5896 5894 5892 5890 5889 5888 5886 5885 5884 5883 5882 5881 5880 5880 5879 5878 5878 5878 5877 5877 5878 5878 5878 5878 5878 5878 5879 5879 5879 5879 5879 5879 5879 5880 5880 5880
5908 5909 5909 5909 5908 5908 5909 5908 5907 5905 5904 5902 5900 5899 5897 5895 5893 5892 5890 5889 5887 5886 5885 5884 5883 5883 5882 5881 5881 5880 5880 5879 5879 5879 5879 5879 5879 5879 5879 5879 5879 5879 5879 5879 5880 5880 5880 5880 5880
5908 5909 5909 5910 5909 5909 5909 5909 5908 5907 5906 5904 5903 5901 5899 5898 5896 5895 5893 5891 5890 5889 5888 5887 5886 5885 5884 5884 5883 5882 5882 5882 5881 5881 5881 5881 5880 5880 5880 5880 5880 5879 5879 5880 5880 5880 5880 5880 5880
5908 5909 5909 5910 5910 5910 5910 5910 5909 5908 5907 5906 5905 5903 5902 5900 5899 5897 5895 5894 5892 5891 5890 5889 5889 5888 5887 5886 5885 5885 5884 5884 5883 5883 5882 5882 5882 5881 5881 5880 5880 5880 5880 5880 5880 5880 5880 5880 5880
5907 5908 5909 5910 5910 5910 5910 5910 5910 5909 5908 5907 5906 5905 5903 5902 5901 5899 5898 5896 5895 5894 5892 5892 5891 5890 5889 5888 5887 5887 5886 5886 5885 5885 5884 5883 5883 5882 5882 5881 5881 5881 5881 5881 5881 5881 5880 5880 5880
5905 5907 5908 5909 5910 5910 5910 5911 5910 5910 5909 5909 5908 5907 5905 5904 5902 5901 5900 5898 5897 5896 5895 5894 5893 5892 5891 5890 5889 5889 5888 5887 5887 5886 5885 5885 5884 5884 5883 5883 5883 5882 5882 5882 5881 5881 5881 5880 5880
5904 5906 5907 5908 5909 5910 5910 5911 5911 5911 5910 5910 5909 5908 5907 5905 5904 5902 5901 5900 5899 5898 5897 5896 5895 5894 5892 5891 5891 5890 5889 5889 5888 5887 5886 5886 5885 5885 5884 5884 5883 5883 5883 5882 5882 5881 5881 5880 5879
5902 5904 5905 5906 5907 5908 5910 5911 5911 5911 5911 5910 5910 5909 5908 5907 5905 5903 5902 5901 5900 5900 5899 5897 5896 5895 5894 5893 5892 5892 5891 5890 5889 5888 5887 5887 5886 5886 5885 5885 5884 5884 5883 5882 5882 5881 5880 5879 5878
5900 5902 5903 5904 5905 5907 5908 5909 5911 5910 5910 5910 5910 5909 5908 5908 5906 5904 5903 5902 5901 5901 5900 5899 5898 5897 5895 5895 5893 5892 5891 5891 5890 5889 5888 5888 5887 5886 5886 5885 5885 5884 5883 5882 5882 5881 5880 5879 5877
5896 5899 5900 5901 5903 5904 5906 5907 5909 5910 5910 5910 5910 5909 5909 5908 5906 5905 5904 5903 5902 5901 5900 5900 5899 5898 5897 5896 5895 5893 5892 5891 5891 5890 5889 5888 5887 5887 5886 5885 5885 5884 5883 5882 5881 5880 5879 5878 5877
5892 5895 5897 5898 5899 5902 5904 5905 5908 5908 5909 5909 5909 5909 5908 5907 5906 5905 5904 5903 5903 5902 5901 5900 5899 5898 5897 5896 5895 5894 5893 5892 5891 5891 5890 5889 5888 5887 5886 5886 5885 5884 5883 5882 5881 5879 5878 5877 5876
5888 5892 5894 5896 5897 5899 5901 5902 5906 5907 5907 5907 5907 5907 5907 5907 5906 5905 5904 5903 5903 5902 5901 5901 5900 5899 5898 5897 5896 5895 5894 5893 5892 5891 5890 5889 5888 5887 5886 5885 5884 5883 5882 5881 5880 5879 5877 5876 5874
5884 5886 5890 5892 5893 5895 5897 5899 5902 5904 5905 5905 5906 5906 5905 5905 5905 5904 5903 5903 5902 5902 5901 5901 5900 5899 5898 5897 5896 5895 5894 5893 5892 5891 5890 5889 5888 5886 5885 5884 5883 5882 5881 5880 5878 5877 5875 5873 5872
5879 5882 5885 5886 5888 5890 5893 5895 5898 5900 5902 5903 5903 5903 5903 5903 5903 5903 5902 5902 5901 5901 5901 5900 5899 5898 5897 5896 5896 5895 5894 5893 5892 5890 5889 5888 5887 5886 5884 5883 5882 5881 5879 5878 5876 5875 5873 5871 5869
5873 5876 5878 5881 5884 5886 5888 5893 5895 5897 5898 5900 5900 5901 5901 5901 5901 5901 5901 5900 5900 5900 5899 5899 5898 5897 5896 5896 5895 5894 5893 5892 5890 5889 5888 5887 5886 5884 5883 5882 5880 5879 5878 5876 5874 5872 5870 5868 5866
5867 5870 5873 5877 5879 5881 5884 5890 5891 5893 5894 5895 5897 5898 5899 5899 5899 5899 5898 5898 5898 5898 5898 5897 5897 5896 5895 5895 5894 5893 5892 5891 5889 5888 5887 5886 5884 5883 5881 5880 5878 5877 5875 5874 5872 5870 5868 5865 5863